Overview Statistics Trail Chart Weather Telemetry Raw packets
 

This is the latest recevied weather packets stored in our database for station/object PA3DZX-13. If no packets are shown the sender has not sent any weather packets the latest 10 day(s).

<< 21 22 23 24 25 26 27 >>
Time Temp. Humidity Pressure Rain* Wind** Luminosity Snow
1788115006 16.67° C 84% 1011.4 hPa 0 mm - - -
1788114106 17.78° C 83% 1011.3 hPa 0 mm - - -
1788113205 18.89° C 83% 1011.3 hPa 0 mm - - -
1788112305 18.89° C 88% 1011.3 hPa 0 mm - - -
1788111405 18.89° C 88% 1011.4 hPa 0 mm - - -
1788110504 18.89° C 89% 1011.4 hPa 0 mm - - -
1788109604 18.89° C 89% 1011.4 hPa 0 mm - - -
1788108703 18.89° C 88% 1011.4 hPa 0 mm - - -
1788107803 18.89° C 89% 1011.5 hPa 0 mm - - -
1788106902 18.89° C 87% 1011.5 hPa 1.27 mm - - -
1788106002 18.89° C 82% 1011.4 hPa 0 mm - - -
1788105105 20° C 84% 1011.5 hPa 0 mm - - -
1788104201 18.89° C 83% 1011.5 hPa 0 mm - - -
1788103300 17.78° C 86% 1011.6 hPa 0 mm - - -
1788102400 17.78° C 86% 1011.6 hPa 0 mm - - -
1788101500 18.89° C 85% 1011.5 hPa 0 mm - - -
1788100600 18.89° C 85% 1011.5 hPa 0 mm - - -
1788099699 18.89° C 88% 1011.4 hPa 0 mm - - -
1788098799 17.78° C 88% 1011.4 hPa 0 mm - - -
1788097898 16.67° C 91% 1011.5 hPa 0.25 mm - - -
1788096999 17.78° C 83% 1011.4 hPa 0.51 mm - - -
1788096098 18.89° C 76% 1011 hPa 0 mm - - -
1788095198 18.89° C 77% 1010.9 hPa 0 mm - - -
1788094298 18.89° C 80% 1010.8 hPa 0 mm - - -
1788093397 18.89° C 81% 1010.7 hPa 0 mm - - -

* Rain latest hour (hover to see other rain measurements)
** Current wind speed in m/s (hover to see current wind gust speed)